Mountain Home, AR

6:00 AM CDT on October 19, 2019 (GMT -0500)
Baxter County Regional

Weather History for KBPK - August, 2019

Change the Weather History Date:

Friday, August 2, 2019

  Actual Average (WUND) Record (WUND)
Temperature  
Mean Temperature 78 °F -  
Max Temperature 87 °F - - (-1)
Min Temperature 69 °F - - (-1)
Cooling Degree Days 12    
Growing Degree Days 28 (Base 50)    
Moisture  
Dew Point 68 °F    
Average Humidity 73    
Maximum Humidity 97    
Minimum Humidity 55    
Precipitation  
Precipitation 0.00 in - - ()
Sea Level Pressure  
Sea Level Pressure 30.02 in    
Wind  
Wind Speed 3 mph (ESE)    
Max Wind Speed 6 mph    
Max Gust Speed -    
Visibility 10 miles    
Events      
Averages and records for this station are not official NWS values.
T = Trace of Precipitation, MM = Missing Value Source: NWS Daily Summary

Daily Weather History Graph

Daily Weather History Graph

Search for Another Location

Airport or City:

Astronomy

Aug. 02, 2019 Rise Set
Actual Time 6:17 AM CDT 8:14 PM CDT
Civil Twilight 5:48 AM CDT 8:42 PM CDT
Nautical Twilight 5:14 AM CDT 9:17 PM CDT
Astronomical Twilight 4:37 AM CDT 9:54 PM CDT
Moon 7:55 AM CDT (8/2) 9:46 PM CDT (8/2)
Length of Visible Light 14h 54m
Length of Day
13h 57m
Waxing Crescent, 4% of the Moon is Illuminated
Aug 2
Waxing Crescent
Aug 7
First Quarter
Aug 15
Full
Aug 23
Last Quarter
Aug 30
New

Hourly Weather History & Observations

Time (CDT) Temp. Heat Index Dew Point Humidity Pressure Visibility Wind Dir Wind Speed Gust Speed Precip Events Conditions
12:53 AM 73.0 °F - 70.0 °F 90% 30.06 in 10.0 mi SSE 3.5 mph - N/A   Clear
1:53 AM 70.0 °F - 69.1 °F 97% 30.06 in 10.0 mi Calm Calm - N/A   Clear
2:53 AM 72.0 °F - 66.9 °F 84% 30.05 in 10.0 mi SE 4.6 mph - N/A   Overcast
4:53 AM 70.0 °F - 64.9 °F 84% 30.04 in 10.0 mi ESE 4.6 mph - N/A   Scattered Clouds
5:53 AM 69.1 °F - 64.9 °F 87% 30.06 in 10.0 mi Calm Calm - N/A   Clear
6:53 AM 69.1 °F - 66.0 °F 90% 30.06 in 10.0 mi ESE 4.6 mph - N/A   Clear
7:53 AM 72.0 °F - 66.0 °F 81% 30.08 in 10.0 mi SE 3.5 mph - N/A   Clear
9:53 AM 75.9 °F - 66.0 °F 71% 30.08 in 10.0 mi Calm Calm - N/A   Clear
10:53 AM 81.0 °F 83.8 °F 68.0 °F 65% 30.07 in 10.0 mi Calm Calm - N/A   Clear
11:53 AM 81.0 °F 84.1 °F 69.1 °F 67% 30.06 in 10.0 mi Variable 3.5 mph - N/A   Clear
12:53 PM 84.0 °F 87.8 °F 69.1 °F 61% 30.04 in 10.0 mi Variable 3.5 mph - N/A   Clear
1:53 PM 84.9 °F 88.8 °F 69.1 °F 59% 30.03 in 10.0 mi Calm Calm - N/A   Scattered Clouds
2:53 PM 86.0 °F 90.1 °F 69.1 °F 57% 30.01 in 10.0 mi Variable 4.6 mph - N/A   Mostly Cloudy
3:53 PM 84.9 °F 89.4 °F 70.0 °F 61% 29.99 in 10.0 mi Variable 5.8 mph - N/A   Scattered Clouds
4:53 PM 86.0 °F 89.4 °F 68.0 °F 55% 29.97 in 10.0 mi SE 5.8 mph - N/A   Clear
5:53 PM 84.9 °F 88.2 °F 68.0 °F 57% 29.96 in 10.0 mi SE 5.8 mph - N/A   Clear
6:53 PM 84.9 °F 88.2 °F 68.0 °F 57% 29.95 in 10.0 mi East 4.6 mph - N/A   Clear
7:53 PM 80.1 °F 82.9 °F 69.1 °F 69% 29.96 in 10.0 mi East 4.6 mph - N/A   Clear
8:53 PM 78.1 °F - 69.1 °F 74% 29.98 in 10.0 mi SE 3.5 mph - N/A   Partly Cloudy
9:53 PM 77.0 °F - 69.1 °F 76% 30.00 in 10.0 mi SE 4.6 mph - N/A   Mostly Cloudy
10:53 PM 75.9 °F - 69.1 °F 79% 30.00 in 10.0 mi ESE 4.6 mph - N/A   Clear
11:53 PM 73.9 °F - 70.0 °F 87% 30.02 in 10.0 mi Calm Calm - N/A   Scattered Clouds